星链-11110 [DTC] (STARLINK-11110 [DTC] )

导读 | 豆包AI

STARLINK-11110是美国太空探索技术公司星链互联网星座的一员,于2024年5月14日发射入轨。星链计划旨在搭建全球卫星互联网服务,该卫星延续星座设计思路,运行在近地轨道,为全球偏远地区、海上、空中等场景提供低延迟高速网络接入,是星链大规模组网进程中补充组网的卫星节点。

基本信息
目录编号:
59762
目录名称:
STARLINK-11110
国际标识:
2024-091K
轨道中心:
EARTH
卫星名称:
星链-11110 [DTC]
卫星全名:
星链-11110 [DTC] (STARLINK-11110 [DTC] )
卫星状态:
在轨 (已飞行670 天)
发射日期:
2024-05-14 UTC
国别 :
美国 (US)
星等 :
--
轨道信息
数据来源 国际轨道数据
星历时间: 2026-03-15T00:56:39+0800
23小时前
查看轨道信息
半长轴: 6737.862km
偏心率: 0.0000839
轨道倾角: 53.159°
近地点辐角 85.418°
升交点赤经 181.352°
平近点角 274.693°
近地点: 359.159km
远地点: 360.291km
周期: 91.737分钟
每日圈数: 15.697108
详细信息
固有亮度:
5
最大亮度:
0.6
卫星平台:
Starlink v2.0 mini
覆盖范围:
全球
运营商:
太空探索技术公司
运营商所在国:
美国
制造商(研发单位):
太空探索技术公司
制造商所在国:
美国
使用方式:
暂无
卫星简介
星链(Starlink)计划是由太空探索技术公司(SpaceX)提出的一个巨型低轨卫星互联网星座项目,计划在2019年至2024年间在太空搭建由约1.2万颗卫星组成的“星链”网络,其中1584颗将部署在地球上空550千米处的近地轨道,并从2020年开始工作。该卫星仍在工作。
2D轨道图
3D轨道图
轨道高度分析图
轨道倾角分析图
轨道综合分析图
查看轨道综合分析图